GW1946 Weather Reports


time (UTC)temp
C
wind
direction
speed
KPH
gust
KPH
rain 1hr
cm
rain 24hr
cm
rain mn
cm
humidity
%
barometer
mb
20260906182551 24 0 0.0 4.8 0.00 0.00 0.00 81 1016.6
20260906182051 24 0 0.0 4.8 0.00 0.00 0.00 82 1016.6
20260906181608 24 0 0.0 11.3 0.00 0.00 0.00 81 1016.4
20260906181051 24 0 1.6 11.3 0.00 0.00 0.00 81 1016.2
20260906180552 24 251 1.6 8.0 0.00 0.00 0.00 80 1016.3
20260906180112 24 0 0.0 12.9 0.00 0.00 0.00 81 1016.4
20260906175555 24 0 1.6 12.9 0.00 0.00 0.00 81 1016.6
20260906175052 24 0 0.0 9.7 0.00 0.00 0.00 81 1016.7
20260906174602 24 198 1.6 9.7 0.00 0.00 0.00 80 1016.7
20260906174051 24 180 1.6 9.7 0.00 0.00 0.00 80 1016.8
20260906173550 25 193 0.0 6.4 0.00 0.00 0.00 80 1017.0
20260906173110 25 0 0.0 9.7 0.00 0.00 0.00 79 1016.9
20260906172554 25 227 0.0 9.7 0.00 0.00 0.00 81 1016.8
20260906172051 25 0 1.6 8.0 0.00 0.00 0.00 80 1017.0
20260906171613 25 209 1.6 11.3 0.00 0.00 0.00 80 1017.1
20260906171050 24 17 3.2 11.3 0.00 0.00 0.00 80 1017.2
20260906170556 24 143 1.6 11.3 0.00 0.00 0.00 82 1017.3
20260906170111 23 0 1.6 12.9 0.00 0.00 0.00 83 1017.2
20260906165551 23 106 3.2 12.9 0.00 0.00 0.00 82 1017.2
20260906165051 23 247 4.8 14.5 0.00 0.00 0.00 83 1017.2
20260906164604 23 144 3.2 16.1 0.00 0.00 0.00 85 1017.2
20260906164051 23 128 3.2 16.1 0.00 0.00 0.00 84 1017.2
20260906163554 22 0 4.8 12.9 0.00 0.00 0.00 86 1017.3
20260906163104 22 147 3.2 9.7 0.00 0.00 0.00 86 1017.2
20260906162550 22 53 3.2 8.0 0.00 0.00 0.00 87 1017.2
20260906162050 22 74 1.6 8.0 0.00 0.00 0.00 88 1017.1
20260906161612 22 104 3.2 11.3 0.00 0.00 0.00 88 1017.1
20260906161049 22 186 1.6 11.3 0.00 0.00 0.00 89 1017.3
20260906160549 21 158 1.6 6.4 0.00 0.00 0.00 89 1017.4
20260906160104 21 0 0.0 8.0 0.00 0.00 0.00 89 1017.3
20260906155549 21 0 0.0 9.7 0.00 0.00 0.00 89 1017.3
20260906155049 21 122 1.6 9.7 0.00 0.00 0.00 89 1017.0
20260906154606 21 71 0.0 6.4 0.00 0.00 0.00 89 1017.1
20260906154049 21 182 0.0 4.8 0.00 0.00 0.00 90 1017.2
20260906153550 21 0 0.0 4.8 0.00 0.00 0.00 90 1017.3
20260906153105 21 259 1.6 4.8 0.00 0.00 0.00 90 1017.3
20260906152549 21 128 0.0 9.7 0.00 0.00 0.00 91 1017.4
20260906152049 21 0 0.0 9.7 0.00 0.00 0.00 91 1017.5
20260906151606 21 198 1.6 9.7 0.00 0.00 0.00 91 1017.5
20260906151051 21 0 0.0 8.0 0.00 0.00 0.00 92 1017.5
20260906150549 21 74 1.6 8.0 0.00 0.00 0.00 92 1017.5
20260906150118 21 0 0.0 6.4 0.00 0.00 0.00 93 1017.5
20260906145551 20 38 0.0 9.7 0.00 0.00 0.00 93 1017.3
20260906145050 20 49 1.6 9.7 0.00 0.00 0.00 94 1017.1
20260906144611 20 258 1.6 9.7 0.00 0.00 0.00 94 1017.1
20260906144049 20 217 1.6 8.0 0.00 0.00 0.00 94 1017.0
20260906143549 20 165 1.6 9.7 0.00 0.00 0.00 95 1017.0
20260906143105 20 0 1.6 9.7 0.00 0.00 0.00 95 1017.2
20260906142549 20 194 0.0 4.8 0.00 0.00 0.00 96 1017.3
20260906142050 20 0 0.0 4.8 0.00 0.00 0.00 96 1017.3
20260906141625 20 0 0.0 4.8 0.00 0.00 0.00 96 1017.3
20260906141050 20 200 0.0 4.8 0.00 0.00 0.00 96 1017.3
20260906140550 20 0 0.0 4.8 0.00 0.00 0.00 96 1017.3
20260906140108 20 141 1.6 4.8 0.00 0.00 0.00 96 1017.3
20260906135551 20 0 0.0 4.8 0.00 0.00 0.00 97 1017.3
20260906135051 20 0 0.0 4.8 0.00 0.00 0.00 97 1017.2
20260906134631 20 0 1.6 6.4 0.00 0.00 0.00 97 1017.1
20260906134050 20 0 1.6 6.4 0.00 0.00 0.00 97 1017.0
20260906133550 20 312 0.0 6.4 0.00 0.00 0.00 97 1017.1
20260906133113 20 0 0.0 8.0 0.00 0.00 0.00 97 1017.0
20260906132550 20 179 0.0 8.0 0.00 0.00 0.00 97 1017.0
20260906132050 19 0 0.0 4.8 0.00 0.00 0.00 97 1016.8
20260906131604 19 113 0.0 4.8 0.00 0.00 0.00 97 1016.7
20260906131049 19 0 0.0 6.4 0.00 0.00 0.00 97 1016.5
20260906130549 19 0 1.6 8.0 0.00 0.00 0.00 97 1016.4
20260906130148 19 202 0.0 8.0 0.00 0.00 0.00 97 1016.4
20260906125551 19 178 0.0 4.8 0.00 0.00 0.00 97 1016.4
20260906125050 18 0 0.0 4.8 0.00 0.00 0.00 97 1016.5
20260906124611 18 65 0.0 4.8 0.00 0.00 0.00 97 1016.6
20260906124050 18 0 0.0 4.8 0.00 0.00 0.00 97 1016.5
20260906123549 18 0 0.0 4.8 0.00 0.00 0.00 98 1016.5
20260906123105 18 125 0.0 3.2 0.00 0.00 0.00 97 1016.4
20260906122550 18 0 0.0 3.2 0.00 0.00 0.00 97 1016.4
20260906122049 17 0 0.0 3.2 0.00 0.00 0.00 97 1016.4
20260906121610 17 0 0.0 1.6 0.00 0.00 0.00 97 1016.3
20260906121049 17 0 0.0 1.6 0.00 0.00 0.00 97 1016.3
20260906120549 16 0 0.0 1.6 0.00 0.00 0.00 97 1016.5
20260906120110 16 0 0.0 0.0 0.00 0.00 0.00 96 1016.3
20260906115549 16 0 0.0 0.0 0.00 0.00 0.00 96 1016.2
20260906115049 16 0 0.0 0.0 0.00 0.00 0.00 96 1016.2
20260906114616 16 0 0.0 0.0 0.00 0.00 0.00 95 1016.1
20260906114046 16 0 0.0 0.0 0.00 0.00 0.00 95 1016.1
20260906113549 16 0 0.0 1.6 0.00 0.00 0.00 95 1016.2
20260906113109 16 0 0.0 1.6 0.00 0.00 0.00 96 1016.2
20260906112549 16 0 0.0 1.6 0.00 0.00 0.00 96 1016.1
20260906112049 16 0 0.0 0.0 0.00 0.00 0.00 95 1016.1
20260906111603 16 0 0.0 0.0 0.00 0.00 0.00 95 1016.1
20260906111050 16 0 0.0 0.0 0.00 0.00 0.00 95 1016.1
20260906110550 16 0 0.0 0.0 0.00 0.00 0.00 95 1016.1
20260906110105 16 0 0.0 0.0 0.00 0.00 0.00 95 1016.1
20260906105549 16 0 0.0 0.0 0.00 0.00 0.00 95 1016.0
20260906105049 17 0 0.0 0.0 0.00 0.00 0.00 95 1016.0
20260906104603 17 0 0.0 0.0 0.00 0.00 0.00 94 1015.9
20260906104049 17 0 0.0 0.0 0.00 0.00 0.00 95 1015.9
20260906103549 17 0 0.0 0.0 0.00 0.00 0.00 95 1015.8
20260906103102 17 0 0.0 0.0 0.00 0.00 0.00 94 1015.8
20260906102553 17 0 0.0 0.0 0.00 0.00 0.00 94 1015.7
20260906102049 17 0 0.0 0.0 0.00 0.00 0.00 95 1015.8
20260906101604 17 0 0.0 0.0 0.00 0.00 0.00 95 1015.7
20260906101049 17 0 0.0 0.0 0.00 0.00 0.00 94 1015.7
20260906100556 17 0 0.0 0.0 0.00 0.00 0.00 94 1015.6
20260906095549 17 0 0.0 0.0 0.00 0.00 0.00 94 1015.6
20260906095049 18 0 0.0 0.0 0.00 0.00 0.00 94 1015.5
20260906094604 18 0 0.0 0.0 0.00 0.00 0.00 94 1015.3
20260906094049 18 0 0.0 0.0 0.00 0.00 0.00 94 1015.3
20260906093550 18 0 0.0 0.0 0.00 0.00 0.00 94 1015.2
20260906093100 18 0 0.0 1.6 0.00 0.00 0.00 94 1015.0
20260906092551 18 0 0.0 3.2 0.00 0.00 0.00 94 1014.9
20260906092052 18 0 0.0 3.2 0.00 0.00 0.00 94 1015.0
20260906091605 18 0 0.0 3.2 0.00 0.00 0.00 94 1015.0
20260906091051 18 0 0.0 1.6 0.00 0.00 0.00 93 1015.0
20260906090549 18 0 0.0 0.0 0.00 0.00 0.00 94 1015.0
20260906090104 19 0 0.0 3.2 0.00 0.00 0.00 93 1015.0
20260906085550 19 0 0.0 3.2 0.00 0.00 0.00 93 1015.0
20260906085050 19 0 0.0 4.8 0.00 0.00 0.00 93 1014.9
20260906084604 19 0 0.0 4.8 0.00 0.00 0.00 94 1014.8
20260906084053 19 109 0.0 3.2 0.00 0.00 0.00 94 1014.8
20260906083549 19 0 0.0 3.2 0.00 0.00 0.00 93 1014.8
20260906083104 20 0 0.0 3.2 0.00 0.00 0.00 93 1014.9
20260906082550 20 0 0.0 3.2 0.00 0.00 0.00 93 1014.9
20260906082050 20 0 0.0 3.2 0.00 0.00 0.00 93 1014.8
20260906081602 20 0 0.0 3.2 0.00 0.00 0.00 93 1014.9
20260906081053 20 86 0.0 4.8 0.00 0.00 0.00 93 1014.9
20260906080549 20 0 0.0 4.8 0.00 0.00 0.00 93 1014.9
20260906080106 20 105 0.0 6.4 0.00 0.00 0.00 93 1014.9
20260906075549 20 188 0.0 6.4 0.00 0.00 0.00 93 1014.9
20260906075049 20 0 0.0 4.8 0.00 0.00 0.00 93 1014.9
20260906074606 20 25 0.0 4.8 0.00 0.00 0.00 93 1014.9
20260906074049 20 0 0.0 4.8 0.00 0.00 0.00 93 1014.9
20260906073550 20 229 0.0 3.2 0.00 0.00 0.00 94 1015.0
20260906073100 20 0 0.0 3.2 0.00 0.00 0.00 94 1015.1
20260906072550 20 0 0.0 3.2 0.00 0.00 0.00 94 1015.2
20260906072049 20 164 0.0 1.6 0.00 0.00 0.00 94 1015.3
20260906071606 20 0 0.0 4.8 0.00 0.00 0.00 94 1015.3
20260906071053 20 0 0.0 4.8 0.00 0.00 0.00 94 1015.2
20260906070550 20 0 0.0 8.0 0.00 0.00 0.00 94 1015.3
20260906070105 20 5 0.0 8.0 0.00 0.00 0.00 94 1015.2
20260906065552 20 60 1.6 4.8 0.00 0.00 0.00 95 1015.2
20260906065050 20 0 0.0 4.8 0.00 0.00 0.00 95 1015.1
20260906064602 20 0 0.0 4.8 0.00 0.00 0.00 95 1015.3
20260906064050 20 0 0.0 6.4 0.00 0.00 0.00 95 1015.2
20260906063549 20 0 0.0 6.4 0.00 0.00 0.00 95 1015.3
20260906063103 20 0 0.0 6.4 0.00 0.00 0.00 95 1015.4
20260906062549 20 121 0.0 1.6 0.00 0.00 0.00 95 1015.4
20260906062049 20 0 0.0 3.2 0.00 0.00 0.00 96 1015.4
20260906061629 20 0 0.0 3.2 0.00 0.00 0.00 96 1015.4
20260906061049 20 0 0.0 1.6 0.00 0.00 0.00 96 1015.4
20260906060549 20 0 0.0 1.6 0.00 0.00 0.00 96 1015.4
20260906060123 20 0 0.0 3.2 0.00 0.00 0.00 96 1015.6
20260906055549 20 0 0.0 3.2 0.00 0.00 0.00 96 1015.6
20260906055049 20 0 0.0 1.6 0.00 0.00 0.00 96 1015.6
20260906054605 20 0 0.0 1.6 0.00 0.00 0.00 96 1015.6
20260906054050 20 0 0.0 1.6 0.00 0.00 0.00 96 1015.6
20260906053550 19 0 0.0 1.6 0.00 0.00 0.00 96 1015.6
20260906053102 19 0 0.0 1.6 0.00 0.00 0.00 95 1015.7
20260906052551 19 0 0.0 0.0 0.00 0.00 0.00 95 1015.8
20260906052049 19 0 0.0 0.0 0.00 0.00 0.00 95 1015.7
20260906051609 20 0 0.0 0.0 0.00 0.00 0.00 95 1015.7
20260906051049 20 0 0.0 0.0 0.00 0.00 0.00 95 1015.7
20260906050551 20 0 0.0 0.0 0.00 0.00 0.00 95 1015.7
20260906050108 20 0 0.0 0.0 0.00 0.00 0.00 95 1015.8
20260906045549 20 0 0.0 0.0 0.00 0.00 0.00 95 1015.9
20260906045049 20 0 0.0 0.0 0.00 0.00 0.00 95 1015.9
20260906044602 20 0 0.0 0.0 0.00 0.00 0.00 95 1015.9
20260906044051 20 0 0.0 0.0 0.00 0.00 0.00 95 1016.0
20260906043553 20 0 0.0 0.0 0.00 0.00 0.00 95 1016.0
20260906043107 20 0 0.0 0.0 0.00 0.00 0.00 95 1016.0
20260906042549 20 0 0.0 0.0 0.00 0.00 0.00 95 1016.0
20260906042049 20 0 0.0 1.6 0.00 0.00 0.00 95 1016.0
20260906041605 20 0 0.0 1.6 0.00 0.00 0.00 95 1016.0
20260906041049 20 0 0.0 0.0 0.00 0.00 0.00 95 1015.6
20260906040549 20 0 0.0 0.0 0.00 0.00 0.00 95 1015.6
20260906040109 20 0 0.0 0.0 0.00 0.00 0.00 94 1015.6
20260906035549 20 0 0.0 0.0 0.00 0.00 0.00 94 1015.5
20260906035049 20 0 0.0 0.0 0.00 0.00 0.00 94 1015.4
20260906034606 20 0 0.0 0.0 0.00 0.00 0.00 94 1015.5
20260906034049 20 0 0.0 0.0 0.00 0.00 0.00 94 1015.4
20260906033550 20 0 0.0 0.0 0.00 0.00 0.00 94 1015.4
20260906033103 20 0 0.0 1.6 0.00 0.00 0.00 94 1015.6
20260906032549 20 0 0.0 1.6 0.00 0.00 0.00 94 1015.7
20260906032050 20 0 0.0 1.6 0.00 0.00 0.00 94 1015.8
20260906031605 20 0 0.0 0.0 0.00 0.00 0.00 94 1015.8
20260906031051 20 0 0.0 0.0 0.00 0.00 0.00 94 1015.8
20260906030549 20 0 0.0 0.0 0.00 0.00 0.00 94 1015.7
20260906030111 20 0 0.0 0.0 0.00 0.00 0.00 94 1015.8
20260906025549 20 0 0.0 0.0 0.00 0.00 0.00 94 1015.7
20260906025049 20 0 0.0 0.0 0.00 0.00 0.00 93 1015.7
20260906024608 20 0 0.0 0.0 0.00 0.00 0.00 93 1015.6
20260906024051 20 0 0.0 0.0 0.00 0.00 0.00 93 1015.6
20260906023549 20 0 0.0 0.0 0.00 0.00 0.00 93 1015.5
20260906023110 20 0 0.0 0.0 0.00 0.00 0.00 94 1015.5
20260906022552 20 0 0.0 0.0 0.00 0.00 0.00 93 1015.4
20260906022049 20 0 0.0 0.0 0.00 0.00 0.00 93 1015.4
20260906021611 20 0 0.0 0.0 0.00 0.00 0.00 92 1015.3
20260906021049 20 0 0.0 0.0 0.00 0.00 0.00 92 1015.1
20260906020549 20 0 0.0 0.0 0.00 0.00 0.00 92 1014.9
20260906020105 20 0 0.0 0.0 0.00 0.00 0.00 91 1014.9
20260906015549 20 0 0.0 0.0 0.00 0.00 0.00 91 1014.9
20260906015049 21 0 0.0 0.0 0.00 0.00 0.00 91 1014.8
20260906014608 21 0 0.0 0.0 0.00 0.00 0.00 90 1014.7
20260906014048 21 0 0.0 0.0 0.00 0.00 0.00 90 1014.6
20260906013549 21 0 0.0 0.0 0.00 0.00 0.00 90 1014.4
20260906013102 21 0 0.0 0.0 0.00 0.00 0.00 90 1014.3
20260906012550 21 0 0.0 0.0 0.00 0.00 0.00 89 1014.1
20260906012049 21 0 0.0 0.0 0.00 0.00 0.00 89 1014.0
20260906011608 22 0 0.0 0.0 0.00 0.00 0.00 88 1013.9
20260906011050 22 0 0.0 0.0 0.00 0.00 0.00 88 1013.8
20260906010549 22 0 0.0 0.0 0.00 0.00 0.00 88 1014.0
20260906010108 22 0 0.0 0.0 0.00 0.00 0.00 88 1014.0
20260906005549 22 0 0.0 0.0 0.00 0.00 0.00 87 1014.0
20260906005052 23 0 0.0 0.0 0.00 0.00 0.00 87 1014.0
20260906004605 23 0 0.0 0.0 0.00 0.00 0.00 86 1014.1
20260906004051 23 0 0.0 0.0 0.00 0.00 0.00 85 1014.0
20260906003549 23 0 0.0 0.0 0.00 0.00 0.00 84 1014.0
20260906003101 23 0 0.0 3.2 0.00 0.00 0.00 84 1014.0
20260906002548 23 0 0.0 3.2 0.00 0.00 0.00 84 1014.1
20260906002048 23 0 0.0 1.6 0.00 0.00 0.00 83 1014.0
20260906001606 24 0 0.0 1.6 0.00 0.00 0.00 83 1014.0
20260906001050 24 0 0.0 1.6 0.00 0.00 0.00 83 1014.1
20260906000549 24 0 0.0 1.6 0.00 0.00 0.00 82 1014.0
20260906000110 25 0 0.0 4.8 0.00 0.00 0.00 82 1014.0
20260905235549 25 0 0.0 4.8 0.00 0.00 0.00 81 1014.0
20260905235052 25 0 0.0 4.8 0.00 0.00 0.00 80 1014.0
20260905234602 25 0 0.0 4.8 0.00 0.00 0.00 80 1014.0
20260905234048 25 0 0.0 8.0 0.00 0.00 0.00 79 1014.1
20260905233553 25 73 0.0 8.0 0.00 0.00 0.00 79 1014.0
20260905233120 26 0 0.0 6.4 0.00 0.00 0.00 79 1013.9
20260905232549 26 103 0.0 6.4 0.00 0.00 0.00 77 1013.8
20260905232048 26 119 1.6 6.4 0.00 0.00 0.00 77 1013.7
20260905231605 26 0 1.6 6.4 0.00 0.00 0.00 77 1013.6
20260905231053 26 45 1.6 11.3 0.00 0.00 0.00 77 1013.6
20260905230550 26 51 1.6 11.3 0.00 0.00 0.00 77 1013.7
20260905230106 26 118 1.6 9.7 0.00 0.00 0.00 76 1013.6
20260905225549 26 280 3.2 12.9 0.00 0.00 0.00 77 1013.7
20260905225051 26 209 1.6 12.9 0.00 0.00 0.00 76 1013.6
20260905224602 27 78 3.2 12.9 0.00 0.00 0.00 75 1013.4
20260905224049 27 159 3.2 14.5 0.00 0.00 0.00 75 1013.3
20260905223548 27 182 1.6 14.5 0.00 0.00 0.00 76 1013.1
20260905223106 27 83 4.8 12.9 0.00 0.00 0.00 75 1013.0
20260905222550 27 219 3.2 12.9 0.00 0.00 0.00 77 1012.9
20260905222049 27 111 1.6 12.9 0.00 0.00 0.00 78 1012.8
20260905221605 26 78 4.8 12.9 0.00 0.00 0.00 78 1012.9
20260905221050 26 62 1.6 9.7 0.00 0.00 0.00 79 1012.9
20260905220549 26 32 1.6 9.7 0.00 0.00 0.00 79 1012.9
20260905215549 26 138 0.0 6.4 0.00 0.00 0.00 80 1013.1
20260905215048 26 0 0.0 9.7 0.00 0.00 0.00 80 1013.0
20260905214607 26 109 1.6 9.7 0.00 0.00 0.00 80 1012.9
20260905214130 26 103 0.0 12.9 0.00 0.00 0.00 79 1013.0
20260905213549 26 31 3.2 12.9 0.00 0.00 0.00 80 1013.1
20260905213113 26 25 3.2 8.0 0.00 0.00 0.00 79 1013.1
20260905212553 26 36 1.6 8.0 0.00 0.00 0.00 80 1013.1
20260905212048 26 0 1.6 6.4 0.00 0.00 0.00 80 1013.1
20260905211610 26 0 1.6 6.4 0.00 0.00 0.00 80 1013.2
20260905211049 26 0 0.0 11.3 0.00 0.00 0.00 80 1013.3
20260905210549 26 50 1.6 11.3 0.00 0.00 0.00 80 1013.1
20260905210112 26 73 0.0 9.7 0.00 0.00 0.00 80 1013.0
20260905205550 26 57 1.6 9.7 0.00 0.00 0.00 79 1013.1
20260905205050 26 182 1.6 11.3 0.00 0.00 0.00 79 1013.2
20260905204603 26 92 0.0 16.1 0.00 0.00 0.00 78 1013.3
20260905204051 26 82 1.6 16.1 0.00 0.00 0.00 79 1013.3
20260905203552 26 86 1.6 14.5 0.00 0.00 0.00 78 1013.4
20260905203100 26 76 4.8 14.5 0.00 0.00 0.00 78 1013.6
20260905202550 26 38 3.2 11.3 0.00 0.00 0.00 78 1013.6
20260905202050 27 43 4.8 9.7 0.00 0.00 0.00 77 1013.6
20260905201607 27 149 3.2 9.7 0.00 0.00 0.00 77 1013.8
20260905201050 27 57 3.2 12.9 0.00 0.00 0.00 77 1013.8
20260905200552 27 33 1.6 12.9 0.00 0.00 0.00 77 1013.9
20260905200106 27 122 3.2 12.9 0.00 0.00 0.00 76 1013.9
20260905195551 27 352 4.8 14.5 0.00 0.00 0.00 77 1013.9
20260905195050 27 77 3.2 16.1 0.00 0.00 0.00 78 1013.9
20260905194603 27 98 4.8 16.1 0.00 0.00 0.00 78 1013.9
20260905194050 27 60 6.4 12.9 0.00 0.00 0.00 77 1014.1
20260905193549 27 32 1.6 8.0 0.00 0.00 0.00 76 1014.4
20260905193103 27 107 1.6 8.0 0.00 0.00 0.00 76 1014.5
20260905192550 27 49 1.6 11.3 0.00 0.00 0.00 76 1014.5
20260905192049 27 59 6.4 11.3 0.00 0.00 0.00 75 1014.5
20260905191603 27 74 1.6 14.5 0.00 0.00 0.00 76 1014.4
20260905191050 27 21 4.8 14.5 0.00 0.00 0.00 75 1014.5
20260905190553 27 0 0.0 6.4 0.00 0.00 0.00 78 1014.6
20260905190104 27 0 0.0 9.7 0.00 0.00 0.00 77 1014.6
20260905185551 27 200 0.0 9.7 0.00 0.00 0.00 77 1014.7
20260905185050 27 105 0.0 4.8 0.00 0.00 0.00 79 1014.9
20260905184610 26 0 1.6 6.4 0.00 0.00 0.00 78 1014.7
20260905184050 26 0 1.6 9.7 0.00 0.00 0.00 79 1014.9
20260905183550 26 74 3.2 11.3 0.00 0.00 0.00 78 1014.9
20260905183118 26 104 1.6 11.3 0.00 0.00 0.00 79 1014.9